Satellite-Ground Cal/Val Site Overpasses Predictions

Prediction of Satellite NPP Overpassing Cal/Val Site: Antarctic Dome C

Ground Cal/Val Site Location: Latitude: -75.10, Longitude: 123.35; Satellite-Ground Site NADIR distance within 100 km.

Table of predicted overpasses for the next 14.0 days since TLE Epoch: 3/8/2014
Interval Starting Time Ending Time Minimum Distance Time Minimum Distance (km)
1 03/10/2014 14:58:32 03/10/2014 14:59:00 03/10/2014 14:58:46 26.42
2 03/11/2014 14:39:50 03/11/2014 14:40:07 03/11/2014 14:39:58 80.67
3 03/12/2014 07:41:23 03/12/2014 07:41:51 03/12/2014 07:41:37 29.49
4 03/13/2014 07:22:39 03/13/2014 07:22:56 03/13/2014 07:22:47 80.82
5 03/15/2014 15:04:54 03/15/2014 15:05:16 03/15/2014 15:05:05 62.86
6 03/16/2014 14:46:03 03/16/2014 14:46:29 03/16/2014 14:46:16 46.31
7 03/17/2014 07:47:43 03/17/2014 07:48:06 03/17/2014 07:47:55 64.18
8 03/18/2014 07:28:53 03/18/2014 07:29:19 03/18/2014 07:29:06 43.93
9 03/21/2014 14:52:19 03/21/2014 14:52:48 03/21/2014 14:52:33 11.21
